Weather in Tsentralny

Russia / Chelyabinsk Oblast     53°03′23″N   60°42′52″E
temp.,
°C
wind,
m/s
gust,
m/s
humid.,
%
clouds,
%
prec.,
mm/h
press.,
hPa
HPBL,
m
16 september, thu
thu1623:00+17sw61554100 0.1 1003657
02:00+13wsw487537 0.1 1004174
05:00+11wnw49870 0.1 1004222
08:00+10wnw59660 0.0 1004409
11:00+14wnw78425 0.0 10041462
14:00+15wnw89325 0.0 10041872
17:00+14wnw8103459 0.0 10052011
20:00+9wnw510505 0.0 1006417
17 september, fri
fri1723:00+7w410605 0.0 1006324
02:00+5w51166100 0.0 1006525
05:00+4w511747 0.0 1006370
08:00+5wnw8126727 0.0 1006778
11:00+7wnw81163100 0.0 10071152
14:00+10nw81049100 0.1 10071655
17:00+10nw8115592 0.1 10091559
20:00+8wnw7963100 0.0 10111123
18 september, sat
sat1823:00+7wnw5760100 0.0 10111005
02:00+7w5865100 0.0 1011571
05:00+6w5969100 0.0 1012500
08:00+5w5874100 0.0 1012359
11:00+8wnw6751100 0.1 10111611
14:00+9w7840100 0.0 10102067
17:00+9wnw81042100 0.1 10102013
20:00+5wnw712685 0.0 1013600
19 september, sun
sun1923:00+3wnw611796 0.0 1014456
02:00+3wnw611725 0.0 1014524
05:00+2wnw713735 0.0 1015475
08:00+3wnw712635 0.0 1015950
11:00+7wnw9114483 0.0 10151570
14:00+8wnw10124187 0.0 10161648
17:00+7wnw10114756 0.0 10171351
20:00+3wnw8136758 0.0 1020542
20 september, mon
mon2023:00+2wnw511735 0.0 1021379
02:00+1wnw49795 0.0 1022224
05:000wnw488421 0.0 1024146
08:00+2nw37745 0.0 1025208
11:00+7nnw564843 0.0 10261053
14:00+10n443698 0.0 10261348
17:00+11n333411 0.0 10261442
20:00+6ene455619 0.0 102873